Wind_Speed
35 35 33 32 32 32 31 31 30 29 30 30 29 28 28 28 28 28 29 29 28 28 29 30 30 30 30 30 31 32 33 34 35 36 38 39 41 42 44 45 47 48 49 50
37 36 34 35 35 34 33 32 31 31 31 31 30 30 29 29 28 29 29 29 29 30 31 30 31 31 31 32 33 34 35 36 37 38 40 41 42 44 45 47 48 50 51 53
38 37 36 36 36 36 35 34 33 33 33 33 32 31 30 30 30 30 30 30 30 31 31 32 32 32 33 33 34 35 36 37 38 40 41 43 44 45 47 49 50 51 53 54
40 39 39 38 37 37 36 35 35 35 35 35 35 35 31 32 32 31 31 31 31 31 32 33 33 33 34 35 35 36 37 38 40 41 43 44 46 47 48 50 51 52 53 54
42 40 40 40 38 38 38 37 37 37 38 38 37 38 33 32 32 32 32 32 32 33 33 34 34 35 35 36 37 38 39 40 41 43 45 46 48 49 50 50 51 53 54 55
43 43 42 41 40 40 40 39 39 40 40 41 38 39 37 34 33 33 33 34 34 35 35 35 36 37 37 38 38 39 40 42 43 45 47 48 49 50 50 51 52 53 54 55
44 44 44 43 42 41 41 41 41 42 42 42 39 40 39 36 35 34 34 35 36 36 36 37 37 38 38 39 40 41 42 44 45 47 48 49 50 51 52 53 54 54 55 55
45 44 44 43 42 41 41 41 41 42 42 42 41 40 39 38 37 36 36 36 37 37 37 38 38 39 40 41 41 43 44 45 47 48 49 50 52 53 54 54 54 55 54 54
44 45 45 45 44 43 43 43 42 43 43 43 43 41 39 38 38 38 38 38 38 38 38 39 39 40 41 42 43 44 45 47 48 49 51 52 53 54 54 54 54 54 54 54
43 44 44 44 45 45 45 43 43 44 45 45 44 42 40 39 38 38 38 39 39 39 39 40 40 41 42 43 44 45 46 48 49 50 51 52 53 54 54 54 54 54 54 55
42 43 43 43 43 42 43 44 45 45 46 46 45 43 41 40 40 40 39 39 40 40 40 41 41 42 43 44 45 46 47 49 50 51 52 52 53 54 54 53 53 54 55 56
42 43 43 43 42 42 42 42 42 44 46 47 46 45 42 41 41 41 40 40 40 41 42 42 43 43 44 44 45 46 48 49 50 51 51 52 53 54 53 53 53 54 55 56
43 44 44 44 44 43 42 41 41 42 44 45 46 45 42 42 42 42 42 41 42 43 43 43 43 43 44 44 45 47 48 49 50 51 51 51 52 52 52 52 53 54 55 55
44 44 45 44 44 44 43 42 42 43 44 44 44 43 41 42 43 43 43 43 43 44 44 43 43 43 44 45 46 47 49 49 50 51 51 51 51 51 52 52 53 54 54 53
44 44 44 44 44 44 44 44 44 45 44 44 43 42 41 42 43 43 44 44 44 43 44 44 44 44 45 46 47 48 49 49 50 50 51 51 51 52 52 52 52 53 52 52
43 44 44 44 43 44 44 43 44 44 44 44 44 43 41 43 44 44 45 45 45 44 44 44 45 45 46 47 47 48 49 49 50 50 50 51 51 51 51 52 52 52 52 52
42 42 43 45 45 45 45 42 43 43 43 43 44 41 41 43 44 45 45 45 45 45 45 46 46 46 47 47 48 49 49 49 49 49 50 50 50 50 50 51 52 51 51 51
41 40 41 43 44 46 43 42 42 42 42 42 42 41 41 42 43 43 44 44 44 45 45 45 46 46 47 47 48 48 48 49 49 49 49 49 49 49 50 51 51 51 51 50
40 40 40 41 42 43 42 41 41 41 40 40 40 40 40 41 41 41 41 42 43 44 44 45 46 46 46 47 47 47 47 48 48 48 48 48 48 49 50 50 50 50 49 48
38 38 39 40 41 41 39 41 41 41 41 39 39 39 40 40 40 40 40 41 42 43 43 44 45 45 46 46 46 46 47 47 47 47 47 47 48 49 49 49 48 48 47 45
35 36 36 37 38 38 38 38 39 40 40 39 39 39 39 39 40 40 40 41 41 41 42 43 44 45 45 46 45 45 46 47 46 47 47 47 47 48 48 48 47 45 44 42
31 33 34 35 36 35 36 37 38 38 38 38 38 38 38 39 39 40 40 41 41 41 42 43 43 44 44 45 45 45 46 46 47 47 47 47 48 48 47 46 45 43 41 40
30 31 31 32 32 33 34 35 36 36 36 37 38 38 39 40 40 41 41 41 41 42 42 43 43 43 43 44 45 46 46 46 46 47 47 47 46 45 44 42 40 39 38 37
31 31 32 31 31 32 33 34 35 36 36 36 37 38 38 39 40 40 41 41 42 42 43 43 44 44 44 44 45 45 45 46 46 45 45 44 42 41 40 39 38 37 36 33
29 31 32 33 33 34 34 35 35 35 35 35 35 36 36 37 37 38 39 40 41 41 42 43 43 43 43 44 44 44 44 44 43 43 42 40 39 38 37 36 35 34 32 30
28 29 30 30 31 33 32 33 34 35 35 35 35 35 36 36 36 36 37 38 38 39 40 41 41 41 42 43 43 43 43 43 41 39 38 36 35 33 32 30 29 29 28 27
Wind_Direction
243 243 244 244 245 246 246 247 246 246 246 247 247 247 248 248 249 250 251 252 254 257 259 261 264 266 268 269 271 273 275 277 278 279 280 282 283 284 285 285 286 285 285 286
243 243 243 244 245 246 246 246 247 247 248 249 249 249 250 251 252 253 253 254 256 258 260 263 265 267 269 271 272 274 276 278 279 280 281 283 284 285 285 286 287 287 287 287
244 243 243 244 245 246 246 247 248 248 249 250 250 249 250 253 254 254 254 255 257 260 262 264 266 267 269 271 273 275 277 279 280 282 283 284 286 286 287 287 288 288 289 288
243 243 243 243 244 245 247 247 248 249 250 250 252 253 250 253 254 255 255 256 258 261 262 264 266 268 270 272 274 277 278 280 282 283 285 286 287 288 288 288 289 290 290 290
243 244 244 244 245 246 247 247 249 250 251 252 252 255 252 253 254 255 256 257 259 261 263 265 267 269 271 273 275 278 280 282 283 285 286 288 289 289 289 289 290 291 291 292
243 244 244 244 245 246 247 248 249 251 252 252 253 257 256 254 254 255 257 259 260 262 264 266 268 271 273 275 277 279 281 283 285 286 288 289 290 290 290 291 292 292 292 292
244 245 245 245 245 246 248 249 250 251 252 254 255 257 258 257 256 257 258 260 261 264 265 267 269 271 273 275 277 279 282 284 286 287 289 290 291 291 291 291 292 292 292 292
245 245 245 245 246 247 247 248 250 253 255 256 256 257 258 258 258 259 260 261 263 265 267 269 271 272 274 276 279 281 283 285 287 288 289 290 291 291 292 292 293 293 292 292
246 246 245 245 245 246 246 247 249 252 254 256 256 256 257 259 260 261 262 263 264 266 267 269 271 273 275 277 280 282 284 286 287 289 289 290 291 291 292 293 293 294 294 293
245 246 245 245 245 245 246 247 248 250 253 254 256 257 259 260 262 264 264 265 266 266 268 269 271 273 276 278 280 282 284 286 288 289 290 290 291 292 292 293 293 294 294 294
243 245 245 244 244 245 245 246 248 251 253 255 256 258 261 262 263 265 266 267 267 268 269 271 273 275 277 279 281 283 285 286 288 288 289 290 291 292 293 293 293 294 294 294
240 243 244 244 244 244 245 247 248 251 253 255 257 258 260 263 264 265 266 267 268 269 270 272 274 276 278 280 282 283 285 286 287 288 289 291 292 293 293 293 294 294 295 295
239 241 242 243 243 244 246 246 248 251 253 255 257 258 259 262 264 265 267 268 269 270 271 273 275 277 279 281 282 284 285 286 287 289 290 292 293 293 293 295 295 296 296 296
239 240 242 244 247 248 249 249 250 252 254 255 257 258 259 262 264 265 266 268 269 271 273 274 276 278 280 281 282 284 286 287 289 290 291 292 293 294 295 296 297 297 297 296
240 242 243 245 246 247 249 250 251 252 254 256 256 257 258 260 262 264 267 268 270 271 273 275 276 278 280 281 283 285 286 288 289 290 291 292 293 294 295 296 297 297 298 297
240 242 244 245 246 247 248 249 251 253 255 257 258 258 260 261 262 264 266 268 270 271 273 275 277 279 281 282 284 286 287 288 289 290 291 292 293 295 296 296 297 297 298 298
242 244 246 247 247 248 249 250 252 254 255 257 259 260 260 261 263 264 265 267 270 272 274 276 278 280 282 284 285 286 287 287 288 290 291 292 293 294 295 296 297 298 298 299
244 245 247 248 247 248 250 250 252 254 255 256 258 259 260 262 264 265 267 268 269 271 273 275 278 280 282 284 285 286 287 288 289 289 290 291 293 294 296 297 297 298 299 300
244 245 247 249 250 251 250 252 253 254 255 256 258 259 260 261 263 266 268 269 270 272 274 276 278 280 281 283 286 287 287 289 289 289 290 291 293 294 295 296 297 298 300 301
245 247 249 250 252 254 253 253 253 255 257 257 259 260 261 262 263 265 268 270 272 274 275 277 278 280 282 284 286 287 288 289 289 289 290 291 293 295 296 296 297 298 299 301
246 248 249 252 255 256 256 256 256 258 259 259 260 261 262 264 265 266 267 270 272 274 276 278 279 281 282 284 286 287 288 289 289 290 290 291 293 295 297 297 297 298 299 300
246 248 249 252 254 256 256 257 257 259 259 261 262 263 264 265 267 268 269 271 273 275 277 279 280 282 283 284 286 288 288 289 289 289 290 292 294 296 297 297 298 298 299 300
245 247 249 251 254 255 255 256 257 258 260 262 264 266 267 269 270 271 271 272 274 276 279 280 281 282 284 285 286 288 289 289 289 290 291 292 294 295 296 297 298 299 299 299
247 248 249 251 252 253 253 254 256 258 261 263 265 266 268 270 270 272 273 274 276 278 280 282 282 282 284 286 287 288 289 288 289 290 291 292 293 294 295 296 298 299 300 300
248 251 252 253 253 254 254 255 256 258 261 264 266 267 268 270 270 272 274 275 276 278 280 282 282 282 283 285 287 288 289 289 290 291 291 291 293 294 294 294 296 298 300 300
249 251 252 253 254 255 256 256 258 259 261 264 266 268 268 270 271 272 274 276 277 278 280 281 282 282 284 286 287 288 289 290 290 290 290 292 293 293 293 294 295 297 300 300
Height
5687 5691 5694 5697 5698 5700 5702 5704 5706 5708 5708 5710 5712 5714 5716 5718 5720 5722 5723 5725 5727 5728 5729 5730 5731 5732 5732 5732 5732 5732 5732 5731 5730 5729 5728 5726 5725 5723 5720 5718 5715 5712 5710 5707
5680 5684 5687 5688 5690 5692 5694 5696 5699 5700 5701 5703 5705 5708 5710 5711 5713 5715 5716 5718 5720 5721 5722 5723 5724 5724 5724 5725 5724 5724 5723 5723 5721 5720 5718 5717 5715 5712 5710 5707 5704 5700 5697 5694
5671 5676 5678 5680 5682 5684 5687 5689 5692 5693 5694 5695 5698 5701 5703 5705 5706 5708 5709 5711 5712 5714 5715 5715 5716 5717 5717 5717 5716 5716 5715 5713 5712 5710 5708 5706 5704 5702 5699 5695 5692 5688 5684 5681
5662 5666 5669 5671 5674 5676 5679 5681 5683 5685 5686 5688 5690 5692 5697 5697 5699 5700 5702 5704 5705 5706 5707 5708 5708 5708 5708 5708 5708 5707 5706 5704 5702 5700 5698 5696 5693 5690 5687 5683 5680 5676 5671 5667
5653 5657 5660 5663 5666 5668 5670 5673 5675 5676 5677 5679 5682 5683 5689 5690 5692 5693 5695 5696 5697 5698 5699 5699 5700 5700 5700 5699 5699 5698 5696 5694 5693 5690 5688 5685 5682 5678 5675 5671 5667 5663 5659 5654
5643 5646 5650 5653 5656 5658 5661 5663 5665 5666 5668 5670 5675 5675 5679 5683 5685 5686 5687 5688 5689 5690 5690 5691 5691 5691 5690 5690 5689 5688 5686 5684 5682 5679 5676 5673 5670 5666 5662 5658 5654 5650 5646 5641
5633 5636 5640 5643 5646 5649 5652 5655 5656 5657 5658 5662 5666 5667 5671 5674 5676 5678 5679 5680 5680 5681 5681 5682 5682 5682 5681 5680 5679 5678 5676 5674 5671 5668 5665 5661 5657 5653 5649 5645 5641 5637 5632 5627
5622 5626 5630 5633 5637 5640 5642 5645 5648 5649 5651 5653 5656 5658 5663 5665 5667 5668 5670 5671 5671 5672 5672 5672 5672 5672 5671 5670 5668 5667 5665 5662 5659 5656 5653 5649 5645 5640 5636 5632 5627 5623 5618 5613
5611 5615 5619 5623 5626 5629 5631 5634 5638 5639 5640 5643 5645 5649 5653 5655 5657 5659 5660 5661 5662 5662 5662 5662 5662 5661 5660 5659 5658 5656 5654 5651 5647 5644 5640 5636 5632 5628 5623 5619 5614 5609 5604 5599
5600 5604 5608 5611 5615 5618 5622 5625 5627 5629 5630 5632 5636 5640 5644 5646 5648 5649 5650 5651 5651 5652 5652 5652 5652 5651 5650 5648 5647 5645 5642 5639 5635 5632 5628 5623 5619 5615 5610 5605 5600 5595 5590 5585
5589 5593 5597 5600 5604 5608 5612 5615 5617 5619 5620 5623 5626 5633 5634 5636 5637 5639 5640 5640 5641 5641 5641 5641 5641 5640 5639 5637 5635 5633 5630 5627 5623 5619 5615 5611 5606 5602 5597 5591 5587 5582 5577 5571
5578 5581 5585 5590 5594 5597 5600 5604 5607 5610 5611 5613 5616 5624 5624 5626 5626 5627 5628 5629 5629 5630 5630 5630 5629 5629 5627 5626 5624 5621 5618 5615 5611 5607 5603 5598 5593 5588 5583 5578 5573 5568 5563 5557
5568 5571 5575 5579 5585 5587 5590 5594 5597 5599 5601 5603 5606 5614 5614 5615 5615 5616 5617 5617 5618 5618 5618 5619 5618 5617 5616 5614 5612 5609 5606 5602 5598 5594 5590 5585 5580 5575 5570 5565 5560 5554 5548 5543
5557 5560 5566 5571 5574 5577 5581 5584 5587 5588 5590 5593 5597 5602 5604 5604 5604 5605 5605 5606 5606 5607 5607 5607 5607 5605 5604 5602 5600 5597 5593 5590 5586 5582 5577 5573 5568 5563 5558 5552 5547 5541 5535 5529
5546 5550 5555 5559 5562 5566 5569 5573 5575 5578 5580 5583 5588 5590 5594 5593 5593 5593 5594 5594 5595 5595 5595 5595 5595 5594 5592 5590 5588 5585 5581 5578 5573 5569 5565 5560 5555 5550 5545 5540 5534 5528 5522 5516
5536 5540 5544 5548 5552 5554 5558 5562 5565 5568 5570 5573 5576 5580 5583 5582 5582 5582 5583 5583 5584 5584 5584 5583 5583 5582 5580 5578 5575 5572 5569 5565 5561 5557 5553 5548 5543 5538 5533 5527 5522 5516 5510 5504
5526 5530 5534 5538 5541 5542 5547 5554 5556 5558 5561 5563 5565 5570 5570 5570 5571 5571 5572 5572 5573 5573 5572 5571 5571 5569 5568 5566 5563 5560 5556 5553 5549 5545 5540 5536 5531 5526 5521 5515 5510 5504 5498 5492
5517 5521 5523 5527 5530 5532 5542 5543 5545 5547 5550 5552 5554 5557 5558 5559 5559 5560 5561 5561 5561 5561 5561 5560 5558 5557 5555 5553 5550 5547 5544 5540 5536 5532 5528 5524 5519 5515 5509 5504 5498 5492 5486 5480
5508 5511 5514 5517 5518 5522 5530 5533 5535 5536 5539 5541 5543 5546 5547 5547 5548 5550 5550 5549 5550 5549 5549 5548 5546 5545 5543 5540 5538 5535 5532 5528 5524 5520 5516 5512 5508 5503 5498 5493 5487 5481 5476 5470
5499 5502 5505 5507 5509 5514 5521 5522 5523 5526 5529 5532 5532 5534 5536 5537 5539 5541 5539 5538 5538 5538 5537 5536 5534 5533 5530 5528 5526 5523 5520 5516 5512 5509 5505 5501 5496 5491 5486 5481 5476 5471 5465 5460
5490 5493 5496 5498 5500 5504 5510 5511 5513 5517 5519 5521 5522 5524 5525 5527 5528 5528 5528 5527 5527 5526 5525 5524 5522 5521 5519 5516 5514 5511 5508 5505 5501 5497 5494 5489 5484 5479 5474 5470 5465 5460 5455 5450
5482 5484 5487 5490 5492 5499 5499 5501 5504 5505 5507 5509 5511 5513 5515 5516 5516 5517 5517 5516 5516 5515 5514 5513 5511 5509 5507 5505 5502 5500 5497 5493 5490 5487 5483 5478 5473 5468 5464 5459 5455 5450 5445 5441
5474 5477 5479 5482 5486 5488 5489 5491 5492 5495 5497 5499 5501 5503 5504 5505 5506 5506 5506 5506 5505 5504 5503 5502 5500 5498 5496 5493 5491 5489 5486 5482 5479 5475 5471 5467 5463 5458 5453 5449 5445 5440 5436 5432
5466 5468 5471 5473 5476 5478 5479 5481 5483 5485 5487 5489 5490 5492 5493 5494 5495 5495 5495 5494 5494 5493 5492 5490 5489 5487 5486 5483 5480 5477 5474 5471 5468 5464 5460 5456 5452 5448 5444 5440 5436 5432 5427 5423
5458 5460 5462 5464 5467 5468 5471 5472 5474 5476 5477 5479 5480 5481 5482 5483 5484 5484 5484 5483 5482 5481 5480 5479 5477 5476 5474 5472 5469 5466 5463 5459 5456 5453 5449 5445 5442 5438 5435 5431 5427 5423 5420 5415
5451 5452 5454 5456 5458 5460 5462 5463 5465 5467 5468 5470 5471 5472 5472 5472 5473 5473 5473 5472 5471 5470 5469 5468 5466 5465 5463 5460 5458 5455 5452 5449 5446 5442 5439 5436 5432 5429 5426 5423 5420 5416 5413 5410